Flag for Lithuania Weather past 2 weeks in Vilnius, Lithuania

Now
43 °F

Sunny.


Feels Like: 41 °F
Forecast: 34 / 56 °F
Wind: 3 mph from Northeast

Location: Vilnius Airport

Current Time: Oct 1, 2014 at 9:52:53 AM

Latest Report: Oct 1, 2014 at 9:20 AM


Visibility: 10 mi

Pressure: 30.42 "Hg

Humidity: 87%

Dew point: 39 °F

Location of VilniusLocation

Historic Weather in Vilnius — Graph

°F

Vilnius temperature yesterday

Maximum temperature yesterday: 61 °F (at 12:50 PM)
Minimum temperature yesterday: 43 °F (at 11:50 PM)
Average temperature yesterday: 54 °F

Past Weeks' High & Low Weather Summary

 TemperatureHumidityPressure
High68 °F (Sep 18, 3:20 PM)100% (Sep 16, 8:20 AM)30.39 "Hg (Sep 16, 8:20 AM)
Low32 °F (Sep 24, 6:20 AM)39% (Sep 30, 2:20 PM)29.50 "Hg (Sep 23, 4:50 AM)
Average52 °F78%30.04 "Hg
* Reported Sep 16 8:20 AM — Oct 1 8:50 AM, Vilnius, Weather by CustomWeather, © 2014

Note: Actual official high and low records may vary slightly from our data, if they occured in-between our weather recording intervals... More about our weather records

Advertising

Vilnius weather history for previous 24 hours

 ConditionsComfort  
Time TempWeatherWind HumidityBarometerVisibility
8:50 AM
Oct 1
41 °FClear.5 mph93%30.39 "Hg4 mi
8:20 AM39 °FClear.3 mph93%30.39 "Hg4 mi
7:50 AM37 °FFog.2 mph100%30.39 "Hg2 mi
7:20 AM36 °FFog.5 mph100%30.36 "Hg2 mi
6:50 AM36 °FPassing clouds.2 mph93%30.36 "HgN/A
6:20 AM36 °FPassing clouds.5 mph100%30.36 "HgN/A
5:50 AM37 °FPassing clouds.5 mph93%30.36 "HgN/A
5:20 AM37 °FPassing clouds.2 mph93%30.36 "HgN/A
4:50 AM36 °FPassing clouds.1 mph100%30.33 "HgN/A
4:20 AM37 °FClear.5 mph93%30.33 "Hg10 mi
3:50 AM37 °FPassing clouds.3 mph93%30.33 "HgN/A
3:20 AM37 °FClear.2 mph93%30.33 "Hg10 mi
2:50 AM37 °FPassing clouds.1 mph93%30.30 "HgN/A
2:20 AM43 °FClear.3 mph87%30.30 "Hg10 mi
1:50 AM39 °FClear.5 mph93%30.30 "Hg10 mi
1:20 AM41 °FClear.5 mph87%30.30 "Hg10 mi
12:50 AM41 °FClear.5 mph87%30.30 "Hg10 mi
12:20 AM41 °FClear.6 mph87%30.30 "Hg10 mi
11:50 PM
Sep 30
43 °FClear.7 mph81%30.30 "Hg10 mi
11:20 PM45 °FClear.7 mph81%30.27 "Hg10 mi
10:50 PM45 °FClear.7 mph81%30.27 "Hg10 mi
10:20 PM46 °FClear.7 mph76%30.27 "Hg10 mi
9:50 PM46 °FClear.6 mph82%30.27 "Hg10 mi
9:20 PM48 °FClear.6 mph76%30.24 "Hg10 mi
8:50 PM48 °FClear.6 mph76%30.24 "Hg10 mi
8:20 PM48 °FClear.6 mph71%30.24 "Hg10 mi
7:50 PM50 °FSunny.5 mph67%30.24 "Hg10 mi
7:20 PM52 °FSunny.6 mph67%30.21 "Hg10 mi
6:50 PM52 °FSunny.5 mph62%30.21 "Hg10 mi
6:20 PM54 °FSunny.8 mph58%30.21 "Hg10 mi
5:50 PM55 °FSunny.12 mph55%30.21 "Hg10 mi
5:20 PM57 °FSunny.9 mph48%30.18 "Hg10 mi
4:50 PM57 °FSunny.8 mph55%30.18 "Hg10 mi
4:20 PM57 °FSunny.10 mph48%30.18 "Hg10 mi
3:50 PM57 °FSunny.10 mph48%30.18 "Hg10 mi
3:20 PM59 °FPartly sunny.12 mph48%30.18 "HgN/A
2:50 PM59 °FBroken clouds.10 mph45%30.18 "HgN/A
2:20 PM61 °FBroken clouds.9 mph39%30.18 "HgN/A
1:50 PM59 °FBroken clouds.7 mph48%30.18 "HgN/A
1:20 PM61 °FBroken clouds.8 mph48%30.18 "HgN/A
12:50 PM61 °FBroken clouds.9 mph52%30.18 "HgN/A
12:20 PM59 °FBroken clouds.7 mph55%30.18 "HgN/A
11:50 AM59 °FBroken clouds.7 mph59%30.18 "HgN/A
11:20 AM57 °FBroken clouds.5 mph72%30.15 "HgN/A
10:50 AM57 °FBroken clouds.3 mph77%30.15 "HgN/A
10:20 AM55 °FBroken clouds.6 mph82%30.15 "HgN/A
9:50 AM55 °FBroken clouds.3 mph82%30.15 "Hg4 mi
9:20 AM54 °FBroken clouds.3 mph94%30.15 "Hg4 mi
Weather by CustomWeather, © 2014

See weather overviewHow to use our weather pages